This demonstration page uses our WeatherBlox Daily Observations layout. Learn more.

36.17497, -115.13722

Hourly Observations for June 5, 2018

Temp ( °F °C ) Dew Point ( °F °C ) Humidity (%) Winds ( mph kmh ) Pressure ( in mb ) Visibility ( mi km ) Precip ( " mm )
12:53 am 00:53 Clear 87 30.6 24 -4.4 10 10 SW 8 13 29.68 1005 10 16.09344 0 0
1:53 am 01:53 Clear 83 28.3 28 -2.2 13 13 S 9 15 29.68 1005 10 16.09344 0 0
2:53 am 02:53 Clear 83 28.3 28 -2.2 13 13 SSW 9 15 29.68 1005 10 16.09344 0 0
3:53 am 03:53 Clear 84 28.9 29 -1.7 13 13 SSW 12 19 29.68 1005 10 16.09344 0 0
4:53 am 04:53 Clear 82 27.8 30 -1.1 15 15 SSW 12 19 29.71 1006 10 16.09344 0 0
5:53 am 05:53 Sunny 78 25.6 31 -0.6 18 18 E 6 9 29.74 1007 10 16.09344 0 0
6:53 am 06:53 Sunny 82 27.8 30 -1.1 15 15 ESE 9 15 29.74 1007 10 16.09344 0 0
7:53 am 07:53 Sunny 85 29.4 32 0 15 15 SE 10 17 29.77 1008 10 16.09344 0 0
8:53 am 08:53 Sunny 89 31.7 32 0 13 13 SSE 15 24 29.77 1008 10 16.09344 0 0
9:53 am 09:53 Sunny 93 33.9 28 -2.2 10 10 S 18 30 29.77 1008 10 16.09344 0 0
10:53 am 10:53 Sunny 95 35 28 -2.2 9 9 S 15 24 29.77 1008 10 16.09344 0 0
11:53 am 11:53 Sunny 97 36.1 29 -1.7 9 9 S 14 22 29.74 1007 10 16.09344 0 0
12:53 pm 12:53 Sunny 98 36.7 27 -2.8 8 8 S 15 24 29.74 1007 10 16.09344 0 0
1:42 pm 13:42 Sunny 99 37.2 27 -2.8 8 8 S 9 15 29.56 1001 10 16.09344 0 0
1:53 pm 13:53 Sunny 101 38.3 28 -2.2 8 8 SW 17 28 29.71 1006 10 16.09344 0 0
2:53 pm 14:53 Sunny 99 37.2 27 -2.8 8 8 WSW 9 15 29.71 1006 10 16.09344 0 0
3:53 pm 15:53 Sunny 99 37.2 23 -5 6 6 W 14 22 29.68 1005 10 16.09344 0 0
4:53 pm 16:53 Sunny 97 36.1 25 -3.9 7 7 WSW 13 20 29.68 1005 10 16.09344 0 0
5:53 pm 17:53 Sunny 97 36.1 25 -3.9 7 7 WSW 10 17 29.68 1005 10 16.09344 0 0
6:53 pm 18:53 Sunny 96 35.6 24 -4.4 7 7 WSW 8 13 29.65 1004 10 16.09344 0 0
7:53 pm 19:53 Sunny 95 35 25 -3.9 8 8 S 6 9 29.65 1004 10 16.09344 0 0
8:53 pm 20:53 Clear 93 33.9 24 -4.4 8 8 SSW 12 19 29.68 1005 10 16.09344 0 0
9:53 pm 21:53 Clear 90 32.2 25 -3.9 9 9 SW 7 11 29.68 1005 10 16.09344 0 0
10:53 pm 22:53 Clear 88 31.1 28 -2.2 11 11 SSW 7 11 29.68 1005 10 16.09344 0 0
11:53 pm 23:53 Clear 85 29.4 29 -1.7 13 13 S 5 7 29.68 1005 10 16.09344 0 0

Powered by AerisWeather